KC2EXG-9 Weather Reports


Display with metric or nautical units.
time (UTC)temp
F
wind
direction
speed
MPH
gust
MPH
rain 1hr
in
rain 24hr
in
rain mn
in
humidity
%
barometer
mb
20260504045035 50 203 1.0 1.0 0.00 0.00 0.00 61 1009.4
20260504044036 51 0.0 0.0 0.00 0.00 0.00 60 1009.4
20260504043015 52 180 1.0 2.0 0.00 0.00 0.00 59 1009.4
20260504042015 52 180 2.0 4.0 0.00 0.00 0.00 57 1009.4
20260504041015 53 203 2.0 3.0 0.00 0.00 0.00 56 1009.4
20260504040015 54 225 2.0 3.0 0.00 0.00 0.00 54 1009.4
20260504035036 54 225 4.0 6.0 0.00 0.00 0.00 54 1009.4
20260504034016 55 225 3.0 4.0 0.00 0.00 0.00 53 1009.4
20260504033017 54 203 2.0 5.0 0.00 0.00 0.00 54 1009.4
20260504032016 54 203 4.0 7.0 0.00 0.00 0.00 53 1009.5
20260504031017 54 225 2.0 4.0 0.00 0.00 0.00 55 1009.5
20260504030016 54 225 1.0 2.0 0.00 0.00 0.00 55 1009.5
20260504025016 54 225 3.0 5.0 0.00 0.00 0.00 54 1009.5
20260504024016 54 203 3.0 6.0 0.00 0.00 0.00 54 1009.6
20260504023016 54 203 3.0 4.0 0.00 0.00 0.00 55 1009.6
20260504022016 54 315 1.0 2.0 0.00 0.00 0.00 57 1009.7
20260504021016 54 225 1.0 2.0 0.00 0.00 0.00 56 1009.8
20260504020017 54 225 2.0 10.0 0.00 0.00 0.00 56 1009.8
20260504015016 54 180 3.0 8.0 0.00 0.00 0.00 58 1009.7
20260504014016 53 203 2.0 5.0 0.00 0.00 0.00 60 1009.7
20260504013056 53 203 2.0 3.0 0.00 0.00 0.00 62 1009.8
20260504012057 53 0.0 0.0 0.00 0.00 0.00 64 1009.9
20260504011036 53 225 1.0 2.0 0.00 0.00 0.00 64 1010.0
20260504010036 53 0.0 1.0 0.00 0.00 0.00 65 1010.1
20260504005036 52 0.0 1.0 0.00 0.00 0.00 67 1009.9
20260504004016 52 203 3.0 6.0 0.00 0.00 0.00 69 1010.0
20260504003017 52 270 1.0 2.0 0.00 0.00 0.00 69 1010.4
20260504002016 52 293 1.0 3.0 0.00 0.00 0.00 68 1010.3
20260504001016 53 203 3.0 8.0 0.00 0.00 0.00 66 1010.5
20260504000036 53 203 2.0 3.0 0.00 0.00 0.00 65 1010.3
20260503235036 53 315 2.0 4.0 0.00 0.00 0.00 64 1010.2
20260503234016 53 315 1.0 3.0 0.00 0.00 0.00 63 1010.1
20260503233016 54 315 3.0 4.0 0.00 0.00 0.00 59 1010.2
20260503232016 55 203 6.0 12.0 0.00 0.00 0.00 56 1010.4
20260503231016 55 203 3.0 8.0 0.00 0.00 0.00 53 1009.9
20260503230057 55 203 6.0 12.0 0.00 0.00 0.00 52 1009.6
20260503225036 55 225 6.0 13.0 0.00 0.00 0.00 51 1009.5
20260503224015 56 270 1.0 2.0 0.00 0.00 0.00 49 1009.4
20260503223016 56 203 5.0 16.0 0.00 0.00 0.00 47 1009.5
20260503222016 57 338 4.0 9.0 0.00 0.00 0.00 46 1009.4
20260503221016 57 23 1.0 4.0 0.00 0.00 0.00 47 1009.4
20260503220015 57 203 6.0 8.0 0.00 0.00 0.00 47 1009.6
20260503215016 57 270 3.0 6.0 0.00 0.00 0.00 47 1009.8
20260503214016 57 225 2.0 3.0 0.00 0.00 0.00 47 1009.9
20260503213036 57 248 4.0 8.0 0.00 0.00 0.00 45 1009.7
20260503212016 58 203 3.0 9.0 0.00 0.00 0.00 46 1009.7
20260503211015 58 225 4.0 9.0 0.00 0.00 0.00 45 1009.6
20260503210016 58 270 3.0 5.0 0.00 0.00 0.00 44 1009.6
20260503205036 59 225 4.0 7.0 0.00 0.00 0.00 43 1009.6
20260503204015 59 203 5.0 11.0 0.00 0.00 0.00 42 1009.6
20260503203015 58 315 5.0 11.0 0.00 0.00 0.00 42 1009.8
20260503202015 59 315 2.0 3.0 0.00 0.00 0.00 42 1010.0
20260503201016 58 315 4.0 7.0 0.00 0.00 0.00 44 1010.0
20260503200035 59 225 3.0 8.0 0.00 0.00 0.00 40 1010.2
20260503195035 57 338 2.0 4.0 0.00 0.00 0.00 42 1010.3
20260503194015 57 315 5.0 11.0 0.00 0.00 0.00 40 1010.6
20260503193015 57 225 4.0 9.0 0.00 0.00 0.00 40 1010.9
20260503192015 57 270 4.0 7.0 0.00 0.00 0.00 41 1010.9
20260503191035 56 225 5.0 8.0 0.00 0.00 0.00 40 1011.2
20260503190015 58 225 3.0 5.0 0.00 0.00 0.00 42 1011.2
20260503185036 57 315 4.0 8.0 0.00 0.00 0.00 46 1011.6
20260503184015 58 0 3.0 4.0 0.00 0.00 0.00 43 1011.5
20260503183035 58 203 3.0 4.0 0.00 0.00 0.00 47 1011.6
20260503182035 58 203 8.0 13.0 0.00 0.00 0.00 41 1011.9
20260503181015 55 315 2.0 4.0 0.00 0.00 0.00 47 1012.0
20260503180015 55 0 3.0 6.0 0.00 0.00 0.00 47 1012.0
20260503175015 55 203 5.0 8.0 0.00 0.00 0.00 48 1011.9
20260503174015 56 270 3.0 4.0 0.00 0.00 0.00 52 1012.1
20260503173015 57 315 3.0 8.0 0.00 0.00 0.00 48 1012.2
20260503172015 55 203 4.0 9.0 0.00 0.00 0.00 47 1012.3
20260503171035 58 0 3.0 7.0 0.00 0.00 0.00 52 1012.5
20260503131017 45 293 2.0 3.0 0.00 0.00 0.00 64 1014.7
20260503081016 35 0.0 0.0 0.00 0.00 0.00 86 1014.1
20260503072016 36 0.0 0.0 0.00 0.00 0.00 84 1014.0
20260503071015 36 0.0 0.0 0.00 0.00 0.00 83 1014.1
20260503055036 40 0.0 0.0 0.00 0.00 0.00 78 1014.5
20260503054015 40 0.0 1.0 0.00 0.00 0.00 77 1014.5
20260503053016 40 203 1.0 1.0 0.00 0.00 0.00 77 1014.6
20260503052015 40 248 2.0 4.0 0.00 0.00 0.00 76 1014.7
20260503051015 41 0.0 1.0 0.00 0.00 0.00 76 1014.9
20260503050015 41 203 1.0 2.0 0.00 0.00 0.00 76 1014.9